Location: Amsterdam
(30.7274°N, 84.4357°W)
Time: 01:37:52
(UTC+00:00)

Transit 2A Rocket - Visible Passes

Search period start: 07 February 2026 00:00
Search period end: 17 February 2026 00:00
Orbit: 581 x 902 km, 66.7° (Epoch: 6 February)

Date Brightness Start Highest point End Pass type
(mag) Time Alt. Az. Time Alt. Az. Time Alt. Az.
7 Feb 6.1 00:16:02 10° SW 00:21:44 53° WNW 00:27:39 10° NNE visible
7 Feb 7.0 10:55:37 10° SSW 10:55:37 10° SSW 10:55:42 10° SSW visible
8 Feb 7.9 01:16:11 10° W 01:19:13 14° NW 01:22:16 10° NNW visible
9 Feb 7.4 00:28:23 10° WSW 00:33:10 25° NW 00:38:02 10° N visible
9 Feb 6.5 23:41:42 10° SW 23:47:18 44° WNW 23:53:03 10° N visible
11 Feb 8.0 00:42:49 10° WNW 00:44:53 12° NW 00:46:57 10° NNW visible
11 Feb 7.6 23:54:22 10° WSW 23:58:46 21° NW 00:03:15 10° N visible
